This is the latest recevied weather packets stored in our database for station/object W7TJC. If no packets are shown the sender has not sent any weather packets the latest 10 day(s).
| Time | Temp. | Humidity | Pressure | Rain* | Wind** | Luminosity | Snow |
|---|---|---|---|---|---|---|---|
| 1777655243 | 16.11° C | 70% | 1018.1 hPa | 0 mm | - | 51 W/m² | - |
| 1777654939 | 15.56° C | 72% | 1018.1 hPa | 0 mm | - | 48 W/m² | - |
| 1777654637 | 15.56° C | 70% | 1018.3 hPa | 0 mm | - | 41 W/m² | - |
| 1777654334 | 15.56° C | 70% | 1018.3 hPa | 0 mm | - | 39 W/m² | - |
| 1777654032 | 15° C | 70% | 1018.2 hPa | 0 mm | - | 41 W/m² | - |
| 1777653729 | 15° C | 70% | 1018.3 hPa | 0 mm | - | 35 W/m² | - |
| 1777653425 | 15° C | 71% | 1018.4 hPa | 0 mm | - | 37 W/m² | - |
| 1777653122 | 15° C | 70% | 1018.3 hPa | 0 mm | - | 45 W/m² | - |
| 1777652818 | 15° C | 69% | 1018.5 hPa | 0 mm | - | 48 W/m² | - |
| 1777652515 | 15° C | 71% | 1018.6 hPa | 0 mm | - | 65 W/m² | - |
| 1777652212 | 15° C | 71% | 1018.6 hPa | 0 mm | - | 62 W/m² | - |
| 1777651909 | 15° C | 71% | 1018.5 hPa | 0 mm | - | 68 W/m² | - |
| 1777651605 | 14.44° C | 75% | 1018.6 hPa | 0 mm | - | 66 W/m² | - |
| 1777651303 | 14.44° C | 72% | 1018.4 hPa | 0 mm | - | 80 W/m² | - |
| 1777650999 | 14.44° C | 74% | 1018.7 hPa | 0 mm | - | 65 W/m² | - |
| 1777650696 | 13.89° C | 75% | 1018.7 hPa | 0 mm | - | 73 W/m² | - |
| 1777650394 | 13.89° C | 74% | 1018.7 hPa | 0 mm | - | 80 W/m² | - |
| 1777650091 | 13.33° C | 76% | 1018.7 hPa | 0 mm | - | 29 W/m² | - |
| 1777649788 | 12.78° C | 78% | 1018.6 hPa | 0 mm | - | 48 W/m² | - |
| 1777649485 | 12.78° C | 82% | 1018.8 hPa | 0 mm | - | 27 W/m² | - |
| 1777649182 | 12.78° C | 82% | 1018.7 hPa | 0 mm | - | 23 W/m² | - |
| 1777648878 | 12.78° C | 80% | 1018.5 hPa | 0 mm | - | 22 W/m² | - |
| 1777648272 | 12.22° C | 82% | 1018.5 hPa | 0 mm | - | 24 W/m² | - |
| 1777647968 | 11.67° C | 83% | 1018.5 hPa | 0 mm | - | 19 W/m² | - |
| 1777647665 | 11.67° C | 84% | 1018.8 hPa | 0 mm | - | 18 W/m² | - |
* Rain latest hour (hover to see other rain measurements)
** Current wind speed in m/s (hover to see current wind gust speed)